Effective Sunday, March 17, 2024, the National Weather Service National Data Buoy Center will discontinue its Dial-A-Buoy Interactive Voice Response system. For more information, see Service Change Notice 24-06 (PDF).

Station OVIA2 - 9455500 - Seldovia, AK Image indicating link to RSS feed of recent meteorological observations for station OVIA2


Conditions at OVIA2 as of
(10:12 pm AKST on 02/28/2024)
0712 GMT on 02/29/2024:
     

Click on the graph icon in the table below to see a time series plot of the last five days of that observation.

5-day plot - Atmospheric Pressure Atmospheric Pressure (PRES):29.44 in
5-day plot - Water Temperature Water Temperature (WTMP): 37.8 °F
NOS Water Level Observation Network Water Level
Previous observations
TIME
(AKST)
5-day plot - Wind Direction
WDIR
 
5-day plot - Wind Speed
WSPD
kts
5-day plot - Wind Gust
GST
kts
5-day plot - Wave Height
WVHT
ft
5-day plot - Dominant Wave Period
DPD
sec
5-day plot - Average Wave Period
APD
sec
5-day plot - Mean Wave Direction
MWD
 
5-day plot - Atmospheric Pressure
PRES
in
5-day plot - Pressure Tendency
PTDY
in
5-day plot - Air Temperature
ATMP
°F
5-day plot - Water Temperature
WTMP
°F
5-day plot - Dew Point
DEWP
°F
5-day plot - Salinity
SAL
psu
5-day plot - Visibility
VIS
nmi
5-day plot - Tide (above MLLW)
TIDE
ft
2024-02-28 10:06 pm-------29.44-- 37.8----
2024-02-28 10:00 pm-------29.44+0.00- 37.9----
2024-02-28 09:54 pm-------29.44-- 37.9----
2024-02-28 09:48 pm-------29.44-- 37.9----
2024-02-28 09:42 pm-------29.43-- 37.8----
2024-02-28 09:36 pm-------29.44-- 37.8----
2024-02-28 09:30 pm-------29.44-- 37.9----
2024-02-28 09:24 pm-------29.44-- 37.9----
2024-02-28 09:18 pm-------29.43-- 37.9----
2024-02-28 09:12 pm-------29.43-- 37.9----
2024-02-28 09:06 pm-------29.43-- 37.9----
2024-02-28 09:00 pm-------29.43+0.00- 37.9----
2024-02-28 08:48 pm-------29.44-- 37.9----
2024-02-28 08:42 pm-------29.44-- 37.9----
2024-02-28 08:36 pm-------29.43-- 37.9----
2024-02-28 08:30 pm-------29.44-- 37.9----
2024-02-28 08:18 pm-------29.44-- 37.9----
2024-02-28 08:12 pm-------29.43-- 37.9----
2024-02-28 08:06 pm-------29.43-- 38.1----
2024-02-28 08:00 pm-------29.43+0.01- 38.1----
2024-02-28 07:54 pm-------29.44-- 38.1----
2024-02-28 07:48 pm-------29.44-- 38.1----
2024-02-28 07:42 pm-------29.44-- 37.9----
2024-02-28 07:36 pm-------29.44-- 38.1----
2024-02-28 07:30 pm-------29.43-- 38.1----
2024-02-28 07:24 pm-------29.43-- 38.1----
2024-02-28 07:18 pm-------29.43-- 38.1----
2024-02-28 07:12 pm-------29.43-- 38.1----
2024-02-28 07:06 pm-------29.43-- 38.1----
2024-02-28 07:00 pm-------29.43+0.00- 38.1----
2024-02-28 06:54 pm-------29.44-- 38.1----
2024-02-28 06:48 pm-------29.44-- 38.1----
2024-02-28 06:42 pm-------29.43-- 38.1----
2024-02-28 06:36 pm-------29.43-- 38.1----
2024-02-28 06:30 pm-------29.43-- 38.1----
2024-02-28 06:24 pm-------29.43-- 38.1----
2024-02-28 06:18 pm-------29.43-- 38.1----
2024-02-28 06:12 pm-------29.43-- 38.1----
2024-02-28 06:06 pm-------29.43-- 38.3----
2024-02-28 06:00 pm-------29.43+0.00- 38.3----
2024-02-28 05:54 pm-------29.42-- 38.3----
2024-02-28 05:48 pm-------29.42-- 38.3----
2024-02-28 05:42 pm-------29.42-- 38.1----
2024-02-28 05:36 pm-------29.42-- 38.3----
2024-02-28 05:30 pm-------29.42-- 38.3----
2024-02-28 05:24 pm-------29.42-- 38.3----
2024-02-28 05:18 pm-------29.42-- 38.1----
2024-02-28 05:12 pm-------29.42-- 38.1----
2024-02-28 05:06 pm-------29.42-- 38.1----
2024-02-28 05:00 pm-------29.42-0.01- 38.1----
2024-02-28 04:54 pm-------29.42-- 38.1----
2024-02-28 04:48 pm-------29.42-- 38.1----
2024-02-28 04:42 pm-------29.42-- 38.3----
2024-02-28 04:36 pm-------29.43-- 38.3----
2024-02-28 04:30 pm-------29.43-- 38.1----
2024-02-28 04:24 pm-------29.43-- 38.1----
2024-02-28 04:18 pm-------29.43-- 38.1----
2024-02-28 04:12 pm-------29.43-- 38.1----
2024-02-28 04:06 pm-------29.43-- 38.1----
2024-02-28 04:00 pm-------29.43-0.01- 38.1----
2024-02-28 03:54 pm-------29.43-- 38.1----
2024-02-28 03:48 pm-------29.43-- 38.1----
2024-02-28 03:42 pm-------29.43-- 38.1----
2024-02-28 03:36 pm-------29.43-- 38.1----
2024-02-28 03:30 pm-------29.43-- 38.1----
2024-02-28 03:24 pm-------29.43-- 38.1----
2024-02-28 03:18 pm-------29.43-- 38.1----
2024-02-28 03:12 pm-------29.43-- 38.1----
2024-02-28 03:06 pm-------29.43-- 38.1----
2024-02-28 03:00 pm-------29.43-0.02- 38.1----
2024-02-28 02:54 pm-------29.43-- 38.1----
2024-02-28 02:48 pm---------- 38.1----
2024-02-28 02:42 pm---------- 38.1----
2024-02-28 02:36 pm---------- 38.1----
2024-02-28 02:30 pm-------29.43-- 38.1----
2024-02-28 02:24 pm-------29.43-- 38.3----
2024-02-28 02:18 pm-------29.43-- 38.3----
2024-02-28 02:12 pm---------- 38.3----
2024-02-28 02:06 pm---------- 38.3----
2024-02-28 02:00 pm-------29.44-0.01- 38.3----
2024-02-28 01:54 pm-------29.44-- 38.3----
2024-02-28 01:48 pm-------29.44-- 38.3----
2024-02-28 01:42 pm-------29.44-- 38.3----
2024-02-28 01:36 pm-------29.44-- 38.3----
2024-02-28 01:30 pm-------29.44-- 38.3----
2024-02-28 01:24 pm-------29.44-- 38.3----
2024-02-28 01:18 pm-------29.44-- 38.3----
2024-02-28 01:12 pm-------29.44-- 38.3----
2024-02-28 01:06 pm-------29.44-- 38.3----
2024-02-28 01:00 pm-------29.44+0.00- 38.3----
2024-02-28 12:54 pm-------29.44-- 38.3----
2024-02-28 12:48 pm-------29.44-- 38.3----
2024-02-28 12:42 pm-------29.44-- 38.3----
2024-02-28 12:36 pm-------29.44-- 38.3----
2024-02-28 12:30 pm-------29.44-- 38.1----
2024-02-28 12:24 pm-------29.44-- 38.3----
2024-02-28 12:18 pm-------29.44-------
2024-02-28 12:12 pm-------29.44-- 38.3----
2024-02-28 12:06 pm-------29.45-- 38.3----
2024-02-28 12:00 pm-------29.45+0.00- 38.3----
2024-02-28 11:54 am-------29.45-- 38.3----
2024-02-28 11:48 am-------29.45-- 38.3----
2024-02-28 11:42 am-------29.45-- 38.3----
2024-02-28 11:36 am-------29.45-- 38.3----
2024-02-28 11:30 am-------29.45-- 38.3----
2024-02-28 11:24 am-------29.45-- 38.3----
2024-02-28 11:18 am-------29.45-- 38.3----
2024-02-28 11:12 am-------29.45-- 38.3----
2024-02-28 11:06 am-------29.45-- 38.3----
2024-02-28 11:00 am-------29.45+0.01- 38.3----
2024-02-28 10:54 am-------29.45-- 38.3----
2024-02-28 10:48 am-------29.45-- 38.3----
2024-02-28 10:42 am-------29.45-- 38.3----
2024-02-28 10:36 am-------29.44-- 38.5----
2024-02-28 10:30 am-------29.44-- 38.5----
2024-02-28 10:24 am-------29.44-- 38.5----
2024-02-28 10:18 am-------29.44-- 38.5----
2024-02-28 10:12 am-------29.44-- 38.5----
2024-02-28 10:06 am-------29.44-- 38.5----
2024-02-28 10:00 am-------29.44+0.02- 38.5----
2024-02-28 09:54 am-------29.44-- 38.7----
2024-02-28 09:48 am-------29.44-- 38.7----
2024-02-28 09:42 am-------29.44-- 38.7----
2024-02-28 09:36 am-------29.44-- 38.7----
2024-02-28 09:30 am-------29.44-- 38.7----
2024-02-28 09:24 am-------29.44-- 38.7----
2024-02-28 09:18 am-------29.44-- 38.7----
2024-02-28 09:12 am-------29.44-- 38.7----
2024-02-28 09:06 am-------29.44-- 38.7----
2024-02-28 09:00 am-------29.44+0.04- 38.7----
2024-02-28 08:54 am-------29.44-- 38.7----
2024-02-28 08:48 am-------29.44-- 38.7----
2024-02-28 08:42 am-------29.44-- 38.7----
2024-02-28 08:36 am-------29.44-- 38.7----
2024-02-28 08:30 am-------29.44-- 38.8----
2024-02-28 08:24 am-------29.44-- 38.8----
2024-02-28 08:18 am-------29.44-- 38.8----
2024-02-28 08:12 am-------29.44-- 38.8----
2024-02-28 08:06 am-------29.44-- 38.8----
2024-02-28 08:00 am-------29.44+0.04- 38.8----
2024-02-28 07:54 am-------29.43-- 38.8----
2024-02-28 07:48 am-------29.43-- 38.8----
2024-02-28 07:42 am-------29.43-- 38.8----
2024-02-28 07:36 am-------29.43-- 38.8----
2024-02-28 07:30 am-------29.43-- 38.8----
2024-02-28 07:24 am-------29.42-- 38.8----
2024-02-28 07:18 am-------29.42-- 38.8----
2024-02-28 07:12 am-------29.42-- 38.7----
2024-02-28 07:06 am-------29.42-- 38.7----
2024-02-28 07:00 am-------29.42+0.03- 38.7----
2024-02-28 06:54 am-------29.41-- 38.7----
2024-02-28 06:48 am-------29.41-- 38.7----
2024-02-28 06:42 am-------29.41-- 38.7----
2024-02-28 06:36 am-------29.41-- 38.7----
2024-02-28 06:30 am-------29.41-- 38.7----
2024-02-28 06:24 am-------29.40-- 38.7----
2024-02-28 06:18 am-------29.41-- 38.8----
2024-02-28 06:12 am-------29.41-- 38.8----
2024-02-28 06:06 am-------29.40-- 38.8----
2024-02-28 06:00 am-------29.41+0.02- 38.8----
2024-02-28 05:54 am-------29.40-- 38.8----
2024-02-28 05:48 am-------29.40-- 38.8----
2024-02-28 05:42 am-------29.40-- 38.8----
2024-02-28 05:36 am-------29.40-- 38.8----
2024-02-28 05:30 am-------29.40-- 38.8----
2024-02-28 05:24 am-------29.40-- 38.8----
2024-02-28 05:18 am-------29.40-- 38.8----
2024-02-28 05:12 am-------29.40-- 38.8----
2024-02-28 05:06 am-------29.40-- 38.8----
2024-02-28 05:00 am-------29.40+0.04- 38.8----
2024-02-28 04:54 am-------29.40-- 38.8----
2024-02-28 04:48 am-------29.40-- 38.8----
2024-02-28 04:42 am-------29.40-- 38.8----
2024-02-28 04:36 am-------29.39-- 38.8----
2024-02-28 04:30 am-------29.39-- 38.8----
2024-02-28 04:24 am-------29.39-- 39.0----
2024-02-28 04:18 am-------29.39-- 39.0----
2024-02-28 04:12 am-------29.39-- 39.0----
2024-02-28 04:06 am-------29.39-- 39.0----
2024-02-28 04:00 am-------29.39+0.04- 39.0----
2024-02-28 03:54 am-------29.39-- 39.0----
2024-02-28 03:48 am-------29.39-- 38.8----
2024-02-28 03:42 am-------29.39-- 38.8----
2024-02-28 03:36 am-------29.39-- 38.8----
2024-02-28 03:30 am-------29.39-- 38.8----
2024-02-28 03:24 am-------29.39-- 38.8----
2024-02-28 03:18 am-------29.39-- 38.7----
2024-02-28 03:12 am-------29.39-- 38.7----
2024-02-28 03:06 am-------29.39-- 38.7----
2024-02-28 03:00 am-------29.39+0.07- 38.7----
2024-02-28 02:54 am-------29.38-- 38.7----
2024-02-28 02:48 am-------29.38-------
2024-02-28 02:42 am-------29.38-- 38.7----
2024-02-28 02:36 am-------29.37-- 38.7----
2024-02-28 02:30 am-------29.37-- 38.5----
2024-02-28 02:24 am-------29.37-- 38.5----
2024-02-28 02:18 am-------29.36-- 38.5----
2024-02-28 02:12 am-------29.36-- 38.5----
2024-02-28 02:06 am-------29.36-- 38.5----
2024-02-28 02:00 am-------29.36+0.07- 38.5----
2024-02-28 01:48 am-------29.36-- 38.7----
2024-02-28 01:42 am-------29.35-- 38.7----
2024-02-28 01:36 am-------29.35-- 38.7----
2024-02-28 01:30 am-------29.35-- 38.7----
2024-02-28 01:24 am-------29.35-- 38.7----
2024-02-28 01:18 am-------29.35-- 38.7----
2024-02-28 01:12 am-------29.34-- 38.7----
2024-02-28 01:06 am-------29.34-- 38.7----
2024-02-28 01:00 am-------29.34+0.06- 38.7----
2024-02-28 12:54 am-------29.34-- 38.7----
2024-02-28 12:48 am-------29.34-- 38.8----
2024-02-28 12:36 am-------29.33-- 38.8----
2024-02-28 12:30 am-------29.33-- 38.8----
2024-02-28 12:18 am-------29.32-- 38.8----
2024-02-28 12:12 am-------29.32-- 38.8----
2024-02-28 12:06 am-------29.32-- 38.8----
2024-02-28 12:00 am-------29.31+0.03- 38.8----
2024-02-27 11:48 pm-------29.31-- 38.7----
2024-02-27 11:42 pm-------29.31-- 38.7----
2024-02-27 11:36 pm-------29.31-- 38.8----
2024-02-27 11:30 pm-------29.30-- 38.8----
2024-02-27 11:24 pm-------29.30-- 38.8----
2024-02-27 11:18 pm-------29.30-- 38.7----
2024-02-27 11:06 pm-------29.29-- 38.8----
2024-02-27 11:00 pm-------29.29+0.02- 38.8----
2024-02-27 10:54 pm-------29.29-- 38.8----
2024-02-27 10:48 pm-------29.29-- 38.8----
2024-02-27 10:42 pm-------29.29-- 39.0----
2024-02-27 10:36 pm-------29.29-- 39.0----
2024-02-27 10:30 pm-------29.29-- 39.0----
2024-02-27 10:18 pm-------29.28-- 39.0----
2024-02-27 10:12 pm-------29.28-- 39.0----
2024-02-27 10:06 pm-------29.28-- 39.0----
2024-02-27 10:00 pm-------29.28+0.02- 39.0----
2024-02-27 09:54 pm-------29.28-- 39.0----